Content
SEND FEEDBACK

Daily
Averages
Monthly
Summary
United States of America

CASSODAY, KANSAS


Home > North America > United States > Kansas
Elevation: 1456 feet     Latitude: 38 03N     Longitude: 096 38W

WEATHER
 
SELECT A DAY
Number of Records: 195,244;   Date Range: 1/1/95 - 4/18/14
 
SHARE

PRINT THIS DATA

[ ← Previous Day ]
WEATHER ALMANAC - FEBRUARY 13, 2013
[ Next Day → ]
[ °C ]   °F
Weather ElementAverageHighLow
Temperature40.6 °F55 °F (2:53 pm)26.1 °F (6:53 am)
Dewpoint24.8 °F30 °F (9:53 pm)21 °F (4:53 pm)
Humidity57.7 %88 % (2:53 am)28 % (2:53 pm)
Barometer29.93 in29.99 in (1:53 am)29.87 in (3:53 pm)
Wind Speed10.8 mph17.3 mph (1:53 pm)
Wind Gust26.5 mph (2:53 pm)
Weather ElementAverage
Visibility9.8 mi
Wind DirectionWSW (256.8 °)

Weather ElementTotal
Precipitation---
Heating Degree Days24.5 (Base 65)
Averaged from 22 records on February 13, 2013
WEATHER CONDITIONS BREAKOUT
WIND DIRECTION BREAKOUT
WEATHER BY HOUR - FEBRUARY 13, 2013
[ °C ]   °F
Local TimeTemperatureDewpointHumidityBarometerVisibilityWind DirectionWind SpeedGust SpeedPrecipitationEventsConditions
1:53 AM32.0 °F28.0 °F85 %29.99 in9.0 miWSW (240°)9.2 mphClear
2:53 AM30.0 °F27.0 °F88 %29.97 in9.0 miWSW (240°)6.9 mphClear
3:53 AM30.0 °F26.1 °F85 %29.96 in9.0 miWest (270°)9.2 mphClear
4:53 AM28.0 °F25.0 °F88 %29.97 in9.0 miWest (280°)6.9 mphClear
5:53 AM27.0 °F23.0 °F85 %29.98 in10.0 miWest (280°)5.8 mphClear
6:53 AM26.1 °F21.9 °F84 %29.97 in10.0 miWest (270°)9.2 mphClear
8:53 AM34.0 °F23.0 °F64 %29.98 in10.0 miWest (280°)8.1 mphClear
9:53 AM39.0 °F25.0 °F57 %29.97 in10.0 miWest (270°)8.1 mphClear
10:53 AM44.1 °F25.0 °F47 %29.97 in10.0 miWest (280°)9.2 mphClear
11:53 AM46.9 °F25.0 °F42 %29.96 in10.0 miWest (270°)15.0 mphClear
12:53 PM50.0 °F25.0 °F38 %29.93 in10.0 miWest (260°)12.7 mph21.9 mphClear
1:53 PM54.0 °F24.1 °F31 %29.90 in10.0 miWest (260°)17.3 mph25.3 mphClear
2:53 PM55.0 °F21.9 °F28 %29.88 in10.0 miWest (260°)15.0 mph26.5 mphClear
3:53 PM54.0 °F23.0 °F30 %29.87 in10.0 miWest (270°)13.8 mph24.2 mphClear
4:53 PM53.1 °F21.0 °F29 %29.88 in10.0 miWest (270°)16.1 mph23.0 mphClear
5:53 PM50.0 °F23.0 °F35 %29.87 in10.0 miWest (260°)8.1 mphClear
6:53 PM42.1 °F24.1 °F49 %29.88 in10.0 miSW (230°)9.2 mphClear
7:53 PM37.9 °F24.1 °F57 %29.89 in10.0 miSW (230°)9.2 mphClear
8:53 PM39.0 °F26.1 °F60 %29.89 in10.0 miSW (220°)10.4 mphClear
9:53 PM39.0 °F30.0 °F70 %29.89 in10.0 miSW (220°)12.7 mphClear
10:53 PM41.0 °F27.0 °F57 %29.89 in10.0 miWSW (240°)15.0 mphClear
11:53 PM39.9 °F27.0 °F60 %29.89 in10.0 miWSW (250°)10.4 mphClear
Hourly data recorded from KEMP, located 30.94 miles away from Cassoday, Kansas







STORIES FROM OUR PARTNERS